contact:dominique.lefevre@mio.osupytheas.fr, maurice.libes@osupytheas.fr, didier.mallarino@osupytheas.fr
Project:EMSO http://www.emso-fr.org/EMSO-France
Depth: 2436.0 m
Title:EMSO Ligure Ouest : Data MII capteur MICROCAT
DateTime_Computer,Latitude,Longitude,Temperature,Conductivity,Pressure,DateTime_Instrument
DateTime_Computer,Latitude,Longitude,degC,S m-1,dbar,DateTime_Instrument
2023-07-21T00:00:11Z,42.805,6.029,13.3048,4.60157,2470.717,2023-7-21T02:02:28Z
2023-07-21T00:03:14Z,42.805,6.029,13.3045,4.60141,2470.717,2023-7-21T02:05:31Z
2023-07-21T00:06:17Z,42.805,6.029,13.3041,4.60156,2470.717,2023-7-21T02:08:34Z
2023-07-21T00:09:20Z,42.805,6.029,13.3046,4.60156,2470.717,2023-7-21T02:11:37Z
2023-07-21T00:12:23Z,42.805,6.029,13.3037,4.60158,2470.717,2023-7-21T02:14:40Z
2023-07-21T00:15:26Z,42.805,6.029,13.3048,4.60144,2470.744,2023-7-21T02:17:43Z
2023-07-21T00:18:29Z,42.805,6.029,13.3058,4.60144,2470.707,2023-7-21T02:20:46Z
2023-07-21T00:21:32Z,42.805,6.029,13.3044,4.60142,2470.717,2023-7-21T02:23:49Z
2023-07-21T00:24:35Z,42.805,6.029,13.3046,4.60166,2470.717,2023-7-21T02:26:52Z
2023-07-21T00:27:38Z,42.805,6.029,13.3053,4.60167,2470.73,2023-7-21T02:29:56Z
2023-07-21T00:30:41Z,42.805,6.029,13.3040,4.60148,2470.717,2023-7-21T02:32:59Z
2023-07-21T00:33:45Z,42.805,6.029,13.3040,4.60144,2470.717,2023-7-21T02:36:02Z
2023-07-21T00:36:48Z,42.805,6.029,13.3039,4.60157,2470.717,2023-7-21T02:39:05Z
2023-07-21T00:39:51Z,42.805,6.029,13.3042,4.60158,2470.693,2023-7-21T02:42:08Z
2023-07-21T00:42:54Z,42.805,6.029,13.3048,4.60162,2470.707,2023-7-21T02:45:11Z
2023-07-21T00:45:57Z,42.805,6.029,13.3043,4.60174,2470.67,2023-7-21T02:48:14Z
2023-07-21T00:49:00Z,42.805,6.029,13.3038,4.60140,2470.693,2023-7-21T02:51:17Z
2023-07-21T00:52:03Z,42.805,6.029,13.3041,4.60148,2470.693,2023-7-21T02:54:20Z
2023-07-21T00:55:06Z,42.805,6.029,13.3038,4.60151,2470.707,2023-7-21T02:57:23Z
2023-07-21T00:58:09Z,42.805,6.029,13.3036,4.60157,2470.684,2023-7-21T03:00:26Z
2023-07-21T01:01:12Z,42.805,6.029,13.3039,4.60157,2470.67,2023-7-21T03:03:29Z
2023-07-21T01:04:15Z,42.805,6.029,13.3066,4.60135,2470.707,2023-7-21T03:06:33Z
2023-07-21T01:07:18Z,42.805,6.029,13.3045,4.60153,2470.684,2023-7-21T03:09:36Z
2023-07-21T01:10:22Z,42.805,6.029,13.3040,4.60144,2470.684,2023-7-21T03:12:39Z
2023-07-21T01:13:25Z,42.805,6.029,13.3041,4.60152,2470.693,2023-7-21T03:15:42Z
2023-07-21T01:16:28Z,42.805,6.029,13.3041,4.60147,2470.67,2023-7-21T03:18:45Z
2023-07-21T01:19:31Z,42.805,6.029,13.3039,4.60166,2470.693,2023-7-21T03:21:48Z
2023-07-21T01:22:34Z,42.805,6.029,13.3050,4.60170,2470.67,2023-7-21T03:24:51Z
2023-07-21T01:25:37Z,42.805,6.029,13.3048,4.60152,2470.67,2023-7-21T03:27:54Z
2023-07-21T01:28:40Z,42.805,6.029,13.3039,4.60132,2470.661,2023-7-21T03:30:57Z
2023-07-21T01:31:43Z,42.805,6.029,13.3056,4.60137,2470.684,2023-7-21T03:34:00Z
2023-07-21T01:34:46Z,42.805,6.029,13.3036,4.60140,2470.646,2023-7-21T03:37:03Z
2023-07-21T01:37:49Z,42.805,6.029,13.3054,4.60166,2470.684,2023-7-21T03:40:06Z
2023-07-21T01:40:52Z,42.805,6.029,13.3042,4.60163,2470.684,2023-7-21T03:43:10Z
2023-07-21T01:43:55Z,42.805,6.029,13.3048,4.60131,2470.646,2023-7-21T03:46:13Z
2023-07-21T01:46:59Z,42.805,6.029,13.3039,4.60133,2470.624,2023-7-21T03:49:16Z
2023-07-21T01:50:02Z,42.805,6.029,13.3050,4.60152,2470.661,2023-7-21T03:52:19Z
2023-07-21T01:53:05Z,42.805,6.029,13.3040,4.60151,2470.684,2023-7-21T03:55:22Z
2023-07-21T01:56:08Z,42.805,6.029,13.3031,4.60134,2470.684,2023-7-21T03:58:25Z
2023-07-21T01:59:11Z,42.805,6.029,13.3047,4.60157,2470.661,2023-7-21T04:01:28Z
2023-07-21T02:02:14Z,42.805,6.029,13.3039,4.60137,2470.624,2023-7-21T04:04:31Z
2023-07-21T02:05:17Z,42.805,6.029,13.3041,4.60146,2470.637,2023-7-21T04:07:34Z
2023-07-21T02:08:20Z,42.805,6.029,13.3034,4.60127,2470.661,2023-7-21T04:10:37Z
2023-07-21T02:11:23Z,42.805,6.029,13.3039,4.60142,2470.661,2023-7-21T04:13:40Z
2023-07-21T02:14:26Z,42.805,6.029,13.3040,4.60149,2470.624,2023-7-21T04:16:43Z
2023-07-21T02:17:29Z,42.805,6.029,13.3036,4.60146,2470.624,2023-7-21T04:19:47Z
2023-07-21T02:20:32Z,42.805,6.029,13.3042,4.60131,2470.637,2023-7-21T04:22:50Z
2023-07-21T02:23:36Z,42.805,6.029,13.3035,4.60146,2470.637,2023-7-21T04:25:53Z
2023-07-21T02:26:39Z,42.805,6.029,13.3035,4.60134,2470.624,2023-7-21T04:28:56Z
2023-07-21T02:29:42Z,42.805,6.029,13.3041,4.60153,2470.661,2023-7-21T04:31:59Z
2023-07-21T02:32:45Z,42.805,6.029,13.3034,4.60146,2470.67,2023-7-21T04:35:02Z
2023-07-21T02:35:48Z,42.805,6.029,13.3033,4.60146,2470.6,2023-7-21T04:38:05Z
2023-07-21T02:38:51Z,42.805,6.029,13.3043,4.60144,2470.646,2023-7-21T04:41:08Z
2023-07-21T02:41:54Z,42.805,6.029,13.3041,4.60160,2470.661,2023-7-21T04:44:11Z
2023-07-21T02:44:57Z,42.805,6.029,13.3038,4.60166,2470.577,2023-7-21T04:47:14Z
2023-07-21T02:48:00Z,42.805,6.029,13.3043,4.60154,2470.624,2023-7-21T04:50:17Z
2023-07-21T02:51:03Z,42.805,6.029,13.3056,4.60149,2470.637,2023-7-21T04:53:20Z
2023-07-21T02:54:06Z,42.805,6.029,13.3057,4.60151,2470.624,2023-7-21T04:56:24Z
2023-07-21T02:57:09Z,42.805,6.029,13.3046,4.60152,2470.661,2023-7-21T04:59:27Z
2023-07-21T03:00:13Z,42.805,6.029,13.3039,4.60123,2470.624,2023-7-21T05:02:30Z
2023-07-21T03:03:16Z,42.805,6.029,13.3048,4.60137,2470.624,2023-7-21T05:05:33Z
2023-07-21T03:06:19Z,42.805,6.029,13.3046,4.60155,2470.624,2023-7-21T05:08:36Z
2023-07-21T03:09:22Z,42.805,6.029,13.3039,4.60136,2470.624,2023-7-21T05:11:39Z
2023-07-21T03:12:25Z,42.805,6.029,13.3047,4.60155,2470.637,2023-7-21T05:14:42Z
2023-07-21T03:15:28Z,42.805,6.029,13.3038,4.60155,2470.646,2023-7-21T05:17:45Z
2023-07-21T03:18:31Z,42.805,6.029,13.3034,4.60127,2470.646,2023-7-21T05:20:48Z
2023-07-21T03:21:34Z,42.805,6.029,13.3037,4.60152,2470.614,2023-7-21T05:23:51Z
2023-07-21T03:24:37Z,42.805,6.029,13.3047,4.60156,2470.646,2023-7-21T05:26:54Z
2023-07-21T03:27:40Z,42.805,6.029,13.3070,4.60172,2470.637,2023-7-21T05:29:57Z
2023-07-21T03:30:43Z,42.805,6.029,13.3063,4.60129,2470.6,2023-7-21T05:33:01Z
2023-07-21T03:33:46Z,42.805,6.029,13.3064,4.60150,2470.614,2023-7-21T05:36:04Z
2023-07-21T03:36:50Z,42.805,6.029,13.3065,4.60134,2470.646,2023-7-21T05:39:07Z
2023-07-21T03:39:53Z,42.805,6.029,13.3046,4.60120,2470.637,2023-7-21T05:42:10Z
2023-07-21T03:42:56Z,42.805,6.029,13.3067,4.60154,2470.637,2023-7-21T05:45:13Z
2023-07-21T03:45:59Z,42.805,6.029,13.3046,4.60117,2470.6,2023-7-21T05:48:16Z
2023-07-21T03:49:02Z,42.805,6.029,13.3051,4.60150,2470.6,2023-7-21T05:51:19Z
2023-07-21T03:52:05Z,42.805,6.029,13.3043,4.60141,2470.637,2023-7-21T05:54:22Z
2023-07-21T03:55:08Z,42.805,6.029,13.3067,4.60164,2470.6,2023-7-21T05:57:25Z
2023-07-21T03:58:11Z,42.805,6.029,13.3037,4.60156,2470.614,2023-7-21T06:00:28Z
2023-07-21T04:01:14Z,42.805,6.029,13.3043,4.60140,2470.624,2023-7-21T06:03:31Z
2023-07-21T04:04:17Z,42.805,6.029,13.3051,4.60162,2470.614,2023-7-21T06:06:34Z
2023-07-21T04:07:20Z,42.805,6.029,13.3070,4.60164,2470.6,2023-7-21T06:09:38Z
2023-07-21T04:10:24Z,42.805,6.029,13.3040,4.60189,2470.614,2023-7-21T06:12:41Z
2023-07-21T04:13:27Z,42.805,6.029,13.3043,4.60143,2470.614,2023-7-21T06:15:44Z
2023-07-21T04:16:30Z,42.805,6.029,13.3059,4.60168,2470.6,2023-7-21T06:18:47Z
2023-07-21T04:19:33Z,42.805,6.029,13.3054,4.60134,2470.624,2023-7-21T06:21:50Z
2023-07-21T04:22:36Z,42.805,6.029,13.3048,4.60130,2470.614,2023-7-21T06:24:53Z
2023-07-21T04:25:39Z,42.805,6.029,13.3049,4.60132,2470.614,2023-7-21T06:27:56Z
2023-07-21T04:28:42Z,42.805,6.029,13.3042,4.60152,2470.624,2023-7-21T06:30:59Z
2023-07-21T04:31:45Z,42.805,6.029,13.3041,4.60161,2470.637,2023-7-21T06:34:02Z
2023-07-21T04:34:48Z,42.805,6.029,13.3051,4.60130,2470.624,2023-7-21T06:37:05Z
2023-07-21T04:37:51Z,42.805,6.029,13.3038,4.60165,2470.577,2023-7-21T06:40:08Z
2023-07-21T04:40:54Z,42.805,6.029,13.3041,4.60166,2470.6,2023-7-21T06:43:12Z
2023-07-21T04:43:57Z,42.805,6.029,13.3056,4.60150,2470.637,2023-7-21T06:46:15Z
2023-07-21T04:47:01Z,42.805,6.029,13.3042,4.60125,2470.6,2023-7-21T06:49:18Z
2023-07-21T04:50:04Z,42.805,6.029,13.3043,4.60132,2470.624,2023-7-21T06:52:21Z
2023-07-21T04:53:07Z,42.805,6.029,13.3044,4.60157,2470.6,2023-7-21T06:55:24Z
2023-07-21T04:56:10Z,42.805,6.029,13.3043,4.60156,2470.614,2023-7-21T06:58:27Z
2023-07-21T04:59:13Z,42.805,6.029,13.3051,4.60142,2470.637,2023-7-21T07:01:30Z
2023-07-21T05:02:16Z,42.805,6.029,13.3036,4.60150,2470.624,2023-7-21T07:04:33Z
2023-07-21T05:05:19Z,42.805,6.029,13.3045,4.60146,2470.637,2023-7-21T07:07:36Z
2023-07-21T05:08:22Z,42.805,6.029,13.3051,4.60159,2470.661,2023-7-21T07:10:39Z
2023-07-21T05:11:25Z,42.805,6.029,13.3040,4.60141,2470.646,2023-7-21T07:13:42Z
2023-07-21T05:14:28Z,42.805,6.029,13.3051,4.60152,2470.6,2023-7-21T07:16:45Z
2023-07-21T05:17:31Z,42.805,6.029,13.3054,4.60139,2470.637,2023-7-21T07:19:49Z
2023-07-21T05:20:34Z,42.805,6.029,13.3052,4.60162,2470.661,2023-7-21T07:22:52Z
2023-07-21T05:23:38Z,42.805,6.029,13.3047,4.60153,2470.624,2023-7-21T07:25:55Z
2023-07-21T05:26:41Z,42.805,6.029,13.3036,4.60162,2470.624,2023-7-21T07:28:58Z
2023-07-21T05:29:44Z,42.805,6.029,13.3038,4.60163,2470.637,2023-7-21T07:32:01Z
2023-07-21T05:32:47Z,42.805,6.029,13.3042,4.60169,2470.61,2023-7-21T07:35:04Z
2023-07-21T05:35:50Z,42.805,6.029,13.3049,4.60157,2470.637,2023-7-21T07:38:07Z
2023-07-21T05:38:53Z,42.805,6.029,13.3065,4.60157,2470.624,2023-7-21T07:41:10Z
2023-07-21T05:41:56Z,42.805,6.029,13.3058,4.60112,2470.624,2023-7-21T07:44:13Z
2023-07-21T05:44:59Z,42.805,6.029,13.3044,4.60150,2470.646,2023-7-21T07:47:16Z
2023-07-21T05:48:02Z,42.805,6.029,13.3055,4.60150,2470.646,2023-7-21T07:50:19Z
2023-07-21T05:51:05Z,42.805,6.029,13.3049,4.60144,2470.646,2023-7-21T07:53:22Z
2023-07-21T05:54:08Z,42.805,6.029,13.3045,4.60155,2470.646,2023-7-21T07:56:26Z
2023-07-21T05:57:11Z,42.805,6.029,13.3052,4.60178,2470.646,2023-7-21T07:59:29Z
2023-07-21T06:00:15Z,42.805,6.029,13.3051,4.60141,2470.624,2023-7-21T08:02:32Z
2023-07-21T06:03:18Z,42.805,6.029,13.3054,4.60116,2470.67,2023-7-21T08:05:35Z
2023-07-21T06:06:21Z,42.805,6.029,13.3036,4.60140,2470.637,2023-7-21T08:08:38Z
2023-07-21T06:09:24Z,42.805,6.029,13.3038,4.60127,2470.646,2023-7-21T08:11:41Z
2023-07-21T06:12:27Z,42.805,6.029,13.3049,4.60184,2470.646,2023-7-21T08:14:44Z
2023-07-21T06:15:30Z,42.805,6.029,13.3060,4.60155,2470.6,2023-7-21T08:17:47Z
2023-07-21T06:18:33Z,42.805,6.029,13.3065,4.60117,2470.637,2023-7-21T08:20:50Z
2023-07-21T06:21:36Z,42.805,6.029,13.3058,4.60149,2470.693,2023-7-21T08:23:53Z
2023-07-21T06:24:39Z,42.805,6.029,13.3051,4.60174,2470.661,2023-7-21T08:26:56Z
2023-07-21T06:27:42Z,42.805,6.029,13.3050,4.60176,2470.646,2023-7-21T08:29:59Z
2023-07-21T06:30:44Z,42.805,6.029,13.3066,4.60119,2470.684,2023-7-21T08:33:01Z
2023-07-21T06:33:47Z,42.805,6.029,13.3052,4.60110,2470.646,2023-7-21T08:36:04Z
2023-07-21T06:36:50Z,42.805,6.029,13.3059,4.60139,2470.693,2023-7-21T08:39:07Z
2023-07-21T06:39:53Z,42.805,6.029,13.3052,4.60119,2470.67,2023-7-21T08:42:10Z
2023-07-21T06:42:56Z,42.805,6.029,13.3058,4.60110,2470.661,2023-7-21T08:45:13Z
2023-07-21T06:45:59Z,42.805,6.029,13.3045,4.60125,2470.67,2023-7-21T08:48:16Z
2023-07-21T06:49:02Z,42.805,6.029,13.3067,4.60119,2470.67,2023-7-21T08:51:20Z
2023-07-21T06:52:05Z,42.805,6.029,13.3054,4.60106,2470.67,2023-7-21T08:54:23Z
2023-07-21T06:55:09Z,42.805,6.029,13.3050,4.60142,2470.684,2023-7-21T08:57:26Z
2023-07-21T06:58:12Z,42.805,6.029,13.3055,4.60125,2470.693,2023-7-21T09:00:29Z
2023-07-21T07:01:15Z,42.805,6.029,13.3055,4.60137,2470.646,2023-7-21T09:03:32Z
2023-07-21T07:04:18Z,42.805,6.029,13.3060,4.60155,2470.67,2023-7-21T09:06:35Z
2023-07-21T07:07:21Z,42.805,6.029,13.3052,4.60150,2470.693,2023-7-21T09:09:38Z
2023-07-21T07:10:24Z,42.805,6.029,13.3042,4.60125,2470.707,2023-7-21T09:12:41Z
2023-07-21T07:13:27Z,42.805,6.029,13.3026,4.60093,2470.693,2023-7-21T09:15:44Z
2023-07-21T07:16:30Z,42.805,6.029,13.3055,4.60114,2470.693,2023-7-21T09:18:47Z
2023-07-21T07:19:33Z,42.805,6.029,13.3048,4.60116,2470.707,2023-7-21T09:21:50Z
2023-07-21T07:22:36Z,42.805,6.029,13.3049,4.60122,2470.707,2023-7-21T09:24:53Z
2023-07-21T07:25:39Z,42.805,6.029,13.3056,4.60106,2470.707,2023-7-21T09:27:57Z
2023-07-21T07:28:42Z,42.805,6.029,13.3057,4.60115,2470.693,2023-7-21T09:31:00Z
2023-07-21T07:31:46Z,42.805,6.029,13.3041,4.60102,2470.707,2023-7-21T09:34:03Z
2023-07-21T07:34:49Z,42.805,6.029,13.3025,4.60092,2470.693,2023-7-21T09:37:06Z
2023-07-21T07:37:52Z,42.805,6.029,13.3031,4.60087,2470.717,2023-7-21T09:40:09Z
2023-07-21T07:40:55Z,42.805,6.029,13.3066,4.60123,2470.73,2023-7-21T09:43:12Z
2023-07-21T07:43:58Z,42.805,6.029,13.3039,4.60092,2470.707,2023-7-21T09:46:15Z
2023-07-21T07:47:01Z,42.805,6.029,13.3024,4.60088,2470.707,2023-7-21T09:49:18Z
2023-07-21T07:50:04Z,42.805,6.029,13.3043,4.60119,2470.67,2023-7-21T09:52:21Z
2023-07-21T07:53:07Z,42.805,6.029,13.3038,4.60100,2470.74,2023-7-21T09:55:24Z
2023-07-21T07:56:10Z,42.805,6.029,13.3041,4.60114,2470.73,2023-7-21T09:58:27Z
2023-07-21T07:59:13Z,42.805,6.029,13.3048,4.60107,2470.67,2023-7-21T10:01:30Z
2023-07-21T08:02:16Z,42.805,6.029,13.3039,4.60091,2470.693,2023-7-21T10:04:34Z
2023-07-21T08:05:19Z,42.805,6.029,13.3042,4.60126,2470.717,2023-7-21T10:07:37Z
2023-07-21T08:08:23Z,42.805,6.029,13.3043,4.60126,2470.73,2023-7-21T10:10:40Z
2023-07-21T08:11:26Z,42.805,6.029,13.3050,4.60137,2470.707,2023-7-21T10:13:43Z
2023-07-21T08:14:29Z,42.805,6.029,13.3048,4.60146,2470.693,2023-7-21T10:16:46Z
2023-07-21T08:17:32Z,42.805,6.029,13.3059,4.60127,2470.717,2023-7-21T10:19:49Z
2023-07-21T08:20:35Z,42.805,6.029,13.3048,4.60121,2470.717,2023-7-21T10:22:52Z
2023-07-21T08:23:38Z,42.805,6.029,13.3040,4.60094,2470.73,2023-7-21T10:25:55Z
2023-07-21T08:26:41Z,42.805,6.029,13.3051,4.60113,2470.717,2023-7-21T10:28:58Z
2023-07-21T08:29:44Z,42.805,6.029,13.3049,4.60135,2470.754,2023-7-21T10:32:01Z
2023-07-21T08:32:47Z,42.805,6.029,13.3036,4.60124,2470.73,2023-7-21T10:35:04Z
2023-07-21T08:35:50Z,42.805,6.029,13.3048,4.60124,2470.717,2023-7-21T10:38:07Z
2023-07-21T08:38:53Z,42.805,6.029,13.3046,4.60108,2470.73,2023-7-21T10:41:10Z
2023-07-21T08:41:56Z,42.805,6.029,13.3062,4.60132,2470.67,2023-7-21T10:44:13Z
2023-07-21T08:44:59Z,42.805,6.029,13.3056,4.60118,2470.717,2023-7-21T10:47:16Z
2023-07-21T08:48:02Z,42.805,6.029,13.3055,4.60121,2470.717,2023-7-21T10:50:19Z
2023-07-21T08:51:05Z,42.805,6.029,13.3058,4.60125,2470.74,2023-7-21T10:53:22Z
2023-07-21T08:54:08Z,42.805,6.029,13.3054,4.60123,2470.74,2023-7-21T10:56:26Z
2023-07-21T08:57:11Z,42.805,6.029,13.3035,4.60126,2470.717,2023-7-21T10:59:29Z
2023-07-21T09:00:15Z,42.805,6.029,13.3056,4.60111,2470.717,2023-7-21T11:02:32Z
2023-07-21T09:03:18Z,42.805,6.029,13.3056,4.60118,2470.717,2023-7-21T11:05:35Z
2023-07-21T09:06:21Z,42.805,6.029,13.3054,4.60135,2470.73,2023-7-21T11:08:38Z
2023-07-21T09:09:24Z,42.805,6.029,13.3058,4.60158,2470.693,2023-7-21T11:11:41Z
2023-07-21T09:12:27Z,42.805,6.029,13.3057,4.60109,2470.754,2023-7-21T11:14:44Z
2023-07-21T09:15:30Z,42.805,6.029,13.3053,4.60099,2470.754,2023-7-21T11:17:47Z
2023-07-21T09:18:33Z,42.805,6.029,13.3057,4.60131,2470.74,2023-7-21T11:20:50Z
2023-07-21T09:21:36Z,42.805,6.029,13.3053,4.60153,2470.717,2023-7-21T11:23:53Z
2023-07-21T09:24:39Z,42.805,6.029,13.3051,4.60160,2470.73,2023-7-21T11:26:56Z
2023-07-21T09:27:42Z,42.805,6.029,13.3066,4.60155,2470.73,2023-7-21T11:30:00Z
2023-07-21T09:30:45Z,42.805,6.029,13.3056,4.60119,2470.754,2023-7-21T11:33:03Z
2023-07-21T09:33:49Z,42.805,6.029,13.3059,4.60117,2470.73,2023-7-21T11:36:06Z
2023-07-21T09:36:52Z,42.805,6.029,13.3056,4.60157,2470.707,2023-7-21T11:39:09Z
2023-07-21T09:39:55Z,42.805,6.029,13.3050,4.60138,2470.684,2023-7-21T11:42:12Z
2023-07-21T09:42:58Z,42.805,6.029,13.3049,4.60138,2470.693,2023-7-21T11:45:15Z
2023-07-21T09:46:01Z,42.805,6.029,13.3060,4.60136,2470.73,2023-7-21T11:48:18Z
2023-07-21T09:49:04Z,42.805,6.029,13.3048,4.60117,2470.73,2023-7-21T11:51:21Z
2023-07-21T09:52:07Z,42.805,6.029,13.3051,4.60111,2470.717,2023-7-21T11:54:24Z
2023-07-21T09:55:10Z,42.805,6.029,13.3049,4.60127,2470.707,2023-7-21T11:57:27Z
2023-07-21T09:58:13Z,42.805,6.029,13.3048,4.60152,2470.693,2023-7-21T12:00:30Z
2023-07-21T10:01:16Z,42.805,6.029,13.3048,4.60152,2470.693,2023-7-21T12:03:34Z
2023-07-21T10:04:19Z,42.805,6.029,13.3058,4.60114,2470.684,2023-7-21T12:06:37Z
2023-07-21T10:07:23Z,42.805,6.029,13.3051,4.60129,2470.693,2023-7-21T12:09:40Z
2023-07-21T10:10:26Z,42.805,6.029,13.3041,4.60098,2470.693,2023-7-21T12:12:43Z
2023-07-21T10:13:29Z,42.805,6.029,13.3076,4.60097,2470.73,2023-7-21T12:15:46Z
2023-07-21T10:16:32Z,42.805,6.029,13.3029,4.60086,2470.693,2023-7-21T12:18:49Z
2023-07-21T10:19:35Z,42.805,6.029,13.3034,4.60102,2470.73,2023-7-21T12:21:52Z
2023-07-21T10:22:38Z,42.805,6.029,13.3031,4.60098,2470.693,2023-7-21T12:24:55Z
2023-07-21T10:25:41Z,42.805,6.029,13.3022,4.60087,2470.693,2023-7-21T12:27:58Z
2023-07-21T10:28:44Z,42.805,6.029,13.3036,4.60091,2470.693,2023-7-21T12:31:01Z
2023-07-21T10:31:45Z,42.805,6.029,13.3034,4.60093,2470.707,2023-7-21T12:34:03Z
2023-07-21T10:34:48Z,42.805,6.029,13.3049,4.60107,2470.693,2023-7-21T12:37:06Z
2023-07-21T10:37:52Z,42.805,6.029,13.3055,4.60127,2470.67,2023-7-21T12:40:09Z
2023-07-21T10:40:55Z,42.805,6.029,13.3029,4.60103,2470.67,2023-7-21T12:43:12Z
2023-07-21T10:43:58Z,42.805,6.029,13.3029,4.60091,2470.67,2023-7-21T12:46:15Z
2023-07-21T10:47:01Z,42.805,6.029,13.3029,4.60094,2470.693,2023-7-21T12:49:18Z
2023-07-21T10:50:04Z,42.805,6.029,13.3028,4.60087,2470.67,2023-7-21T12:52:21Z
2023-07-21T10:53:07Z,42.805,6.029,13.3022,4.60085,2470.684,2023-7-21T12:55:24Z
2023-07-21T10:56:10Z,42.805,6.029,13.3023,4.60086,2470.684,2023-7-21T12:58:27Z
2023-07-21T10:59:13Z,42.805,6.029,13.3024,4.60084,2470.67,2023-7-21T13:01:30Z
2023-07-21T11:02:16Z,42.805,6.029,13.3031,4.60086,2470.67,2023-7-21T13:04:33Z
2023-07-21T11:05:19Z,42.805,6.029,13.3029,4.60088,2470.67,2023-7-21T13:07:37Z
2023-07-21T11:08:22Z,42.805,6.029,13.3024,4.60092,2470.707,2023-7-21T13:10:40Z
2023-07-21T11:11:26Z,42.805,6.029,13.3026,4.60089,2470.684,2023-7-21T13:13:43Z
2023-07-21T11:14:29Z,42.805,6.029,13.3029,4.60085,2470.67,2023-7-21T13:16:46Z
2023-07-21T11:17:32Z,42.805,6.029,13.3021,4.60084,2470.656,2023-7-21T13:19:49Z
2023-07-21T11:20:35Z,42.805,6.029,13.3024,4.60086,2470.67,2023-7-21T13:22:52Z
2023-07-21T11:23:38Z,42.805,6.029,13.3023,4.60082,2470.661,2023-7-21T13:25:55Z
2023-07-21T11:26:41Z,42.805,6.029,13.3022,4.60084,2470.661,2023-7-21T13:28:58Z
2023-07-21T11:29:44Z,42.805,6.029,13.3024,4.60083,2470.67,2023-7-21T13:32:01Z
2023-07-21T11:32:47Z,42.805,6.029,13.3029,4.60084,2470.707,2023-7-21T13:35:04Z
2023-07-21T11:35:50Z,42.805,6.029,13.3021,4.60084,2470.67,2023-7-21T13:38:07Z
2023-07-21T11:38:53Z,42.805,6.029,13.3023,4.60084,2470.646,2023-7-21T13:41:10Z
2023-07-21T11:41:56Z,42.805,6.029,13.3024,4.60087,2470.67,2023-7-21T13:44:14Z
2023-07-21T11:45:00Z,42.805,6.029,13.3023,4.60085,2470.707,2023-7-21T13:47:17Z
2023-07-21T11:48:03Z,42.805,6.029,13.3024,4.60086,2470.646,2023-7-21T13:50:20Z
2023-07-21T11:51:06Z,42.805,6.029,13.3021,4.60084,2470.637,2023-7-21T13:53:23Z
2023-07-21T11:54:09Z,42.805,6.029,13.3023,4.60082,2470.661,2023-7-21T13:56:26Z
2023-07-21T11:57:12Z,42.805,6.029,13.3023,4.60087,2470.661,2023-7-21T13:59:29Z
2023-07-21T12:00:15Z,42.805,6.029,13.3032,4.60089,2470.646,2023-7-21T14:02:32Z
2023-07-21T12:03:18Z,42.805,6.029,13.3027,4.60086,2470.661,2023-7-21T14:05:35Z
2023-07-21T12:06:21Z,42.805,6.029,13.3024,4.60085,2470.624,2023-7-21T14:08:38Z
2023-07-21T12:09:24Z,42.805,6.029,13.3022,4.60084,2470.661,2023-7-21T14:11:41Z
2023-07-21T12:12:27Z,42.805,6.029,13.3022,4.60086,2470.61,2023-7-21T14:14:44Z
2023-07-21T12:15:30Z,42.805,6.029,13.3025,4.60084,2470.624,2023-7-21T14:17:48Z
2023-07-21T12:18:33Z,42.805,6.029,13.3024,4.60084,2470.661,2023-7-21T14:20:51Z
2023-07-21T12:21:37Z,42.805,6.029,13.3027,4.60084,2470.624,2023-7-21T14:23:54Z
2023-07-21T12:24:40Z,42.805,6.029,13.3026,4.60087,2470.637,2023-7-21T14:26:57Z
2023-07-21T12:27:43Z,42.805,6.029,13.3031,4.60086,2470.624,2023-7-21T14:30:00Z
2023-07-21T12:30:46Z,42.805,6.029,13.3023,4.60084,2470.646,2023-7-21T14:33:03Z
2023-07-21T12:33:49Z,42.805,6.029,13.3026,4.60086,2470.624,2023-7-21T14:36:06Z
2023-07-21T12:36:52Z,42.805,6.029,13.3024,4.60084,2470.637,2023-7-21T14:39:09Z
2023-07-21T12:39:55Z,42.805,6.029,13.3027,4.60085,2470.624,2023-7-21T14:42:12Z
2023-07-21T12:42:58Z,42.805,6.029,13.3023,4.60085,2470.624,2023-7-21T14:45:15Z
2023-07-21T12:46:01Z,42.805,6.029,13.3023,4.60084,2470.637,2023-7-21T14:48:18Z
2023-07-21T12:49:04Z,42.805,6.029,13.3024,4.60086,2470.624,2023-7-21T14:51:22Z
2023-07-21T12:52:08Z,42.805,6.029,13.3029,4.60085,2470.614,2023-7-21T14:54:25Z
2023-07-21T12:55:11Z,42.805,6.029,13.3027,4.60091,2470.624,2023-7-21T14:57:28Z
2023-07-21T12:58:14Z,42.805,6.029,13.3024,4.60086,2470.624,2023-7-21T15:00:31Z
2023-07-21T13:01:17Z,42.805,6.029,13.3024,4.60083,2470.6,2023-7-21T15:03:34Z
2023-07-21T13:04:20Z,42.805,6.029,13.3038,4.60087,2470.614,2023-7-21T15:06:37Z
2023-07-21T13:07:23Z,42.805,6.029,13.3026,4.60087,2470.6,2023-7-21T15:09:40Z
2023-07-21T13:10:26Z,42.805,6.029,13.3024,4.60081,2470.6,2023-7-21T15:12:43Z
2023-07-21T13:13:29Z,42.805,6.029,13.3041,4.60114,2470.577,2023-7-21T15:15:46Z
2023-07-21T13:16:32Z,42.805,6.029,13.3045,4.60105,2470.624,2023-7-21T15:18:49Z
2023-07-21T13:19:35Z,42.805,6.029,13.3037,4.60099,2470.6,2023-7-21T15:21:52Z
2023-07-21T13:22:38Z,42.805,6.029,13.3032,4.60092,2470.6,2023-7-21T15:24:56Z
2023-07-21T13:25:41Z,42.805,6.029,13.3036,4.60092,2470.637,2023-7-21T15:27:59Z
2023-07-21T13:28:45Z,42.805,6.029,13.3048,4.60102,2470.637,2023-7-21T15:31:02Z
2023-07-21T13:31:48Z,42.805,6.029,13.3046,4.60103,2470.614,2023-7-21T15:34:05Z
2023-07-21T13:34:51Z,42.805,6.029,13.3041,4.60090,2470.624,2023-7-21T15:37:08Z
2023-07-21T13:37:54Z,42.805,6.029,13.3054,4.60103,2470.6,2023-7-21T15:40:11Z
2023-07-21T13:40:57Z,42.805,6.029,13.3041,4.60105,2470.6,2023-7-21T15:43:14Z
2023-07-21T13:44:00Z,42.805,6.029,13.3043,4.60096,2470.6,2023-7-21T15:46:17Z
2023-07-21T13:47:03Z,42.805,6.029,13.3046,4.60084,2470.577,2023-7-21T15:49:20Z
2023-07-21T13:50:06Z,42.805,6.029,13.3037,4.60107,2470.591,2023-7-21T15:52:23Z
2023-07-21T13:53:09Z,42.805,6.029,13.3038,4.60096,2470.637,2023-7-21T15:55:26Z
2023-07-21T13:56:12Z,42.805,6.029,13.3050,4.60097,2470.591,2023-7-21T15:58:30Z
2023-07-21T13:59:15Z,42.805,6.029,13.3048,4.60087,2470.6,2023-7-21T16:01:33Z
2023-07-21T14:02:18Z,42.805,6.029,13.3047,4.60108,2470.614,2023-7-21T16:04:36Z
2023-07-21T14:05:22Z,42.805,6.029,13.3024,4.60084,2470.577,2023-7-21T16:07:39Z
2023-07-21T14:08:25Z,42.805,6.029,13.3028,4.60103,2470.614,2023-7-21T16:10:42Z
2023-07-21T14:11:28Z,42.805,6.029,13.3039,4.60100,2470.577,2023-7-21T16:13:45Z
2023-07-21T14:14:31Z,42.805,6.029,13.3036,4.60103,2470.591,2023-7-21T16:16:48Z
2023-07-21T14:17:34Z,42.805,6.029,13.3061,4.60090,2470.577,2023-7-21T16:19:51Z
2023-07-21T14:20:37Z,42.805,6.029,13.3042,4.60111,2470.6,2023-7-21T16:22:54Z
2023-07-21T14:23:40Z,42.805,6.029,13.3033,4.60095,2470.6,2023-7-21T16:25:57Z
2023-07-21T14:26:43Z,42.805,6.029,13.3048,4.60110,2470.577,2023-7-21T16:29:00Z
2023-07-21T14:29:46Z,42.805,6.029,13.3050,4.60125,2470.577,2023-7-21T16:32:03Z
2023-07-21T14:32:48Z,42.805,6.029,13.3033,4.60087,2470.614,2023-7-21T16:35:05Z
2023-07-21T14:35:51Z,42.805,6.029,13.3030,4.60091,2470.553,2023-7-21T16:38:08Z
2023-07-21T14:38:54Z,42.805,6.029,13.3054,4.60127,2470.567,2023-7-21T16:41:11Z
2023-07-21T14:41:57Z,42.805,6.029,13.3034,4.60096,2470.577,2023-7-21T16:44:14Z
2023-07-21T14:45:00Z,42.805,6.029,13.3034,4.60097,2470.553,2023-7-21T16:47:18Z
2023-07-21T14:48:03Z,42.805,6.029,13.3043,4.60111,2470.591,2023-7-21T16:50:21Z
2023-07-21T14:51:07Z,42.805,6.029,13.3055,4.60125,2470.591,2023-7-21T16:53:24Z
2023-07-21T14:54:10Z,42.805,6.029,13.3023,4.60089,2470.577,2023-7-21T16:56:27Z
2023-07-21T14:57:13Z,42.805,6.029,13.3033,4.60097,2470.591,2023-7-21T16:59:30Z
2023-07-21T15:00:16Z,42.805,6.029,13.3026,4.60087,2470.577,2023-7-21T17:02:33Z
2023-07-21T15:03:19Z,42.805,6.029,13.3032,4.60082,2470.577,2023-7-21T17:05:36Z
2023-07-21T15:06:22Z,42.805,6.029,13.3034,4.60086,2470.577,2023-7-21T17:08:39Z
2023-07-21T15:09:25Z,42.805,6.029,13.3027,4.60084,2470.624,2023-7-21T17:11:42Z
2023-07-21T15:12:28Z,42.805,6.029,13.3050,4.60108,2470.614,2023-7-21T17:14:45Z